Regional Weather Roundup
Issued by NWS

Home | Current Version | Previous Version | Graphics & Text | Print | Product List | Glossary On
Versions: 1 2 3 4 5 6 7 8 9 10 11 12 13 14 15 16 17 18 19 20 21 22 23 24 25 26 27 28 29 30 31 32 33 34 35 36 37 38 39 40 41 42 43 44 45 46 47 48 49 50
000
ASUS44 KMEG 161510
RWRTN
TENNESSEE HOURLY STATE WEATHER ROUNDUP
NATIONAL WEATHER SERVICE MEMPHIS TN
1000 AM CDT WED AUG 16 2017

TNZ002-004-019-021-049-052-054-088>092-161600-
WEST TENNESSEE

CITY           SKY/WX    TMP DP  RH WIND       PRES   REMARKS
MEMPHIS INTL   CLOUDY    79  76  90 SW10      30.03S
NWS MEMPHIS      N/A     80 N/A N/A MISG        N/A
JACKSON        CLOUDY    80  76  87 SW8       30.04R
DYERSBURG      CLOUDY    81  76  84 SW3       30.03R
COVINGTON      CLOUDY    81  77  89 S7        30.03R
UNION CITY     PTSUNNY   82  77  83 S9        30.00S HX  91
PARIS          MOSUNNY   82  75  78 S8        30.02S
LEXINGTON      CLOUDY    77  73  88 S9        30.05S
SELMER         CLOUDY    79  73  83 SW6G13    30.05S
SAVANNAH       CLOUDY    79  75  89 SW7       30.05S
$$

TNZ008-025-027-028-033-062-065-066-161600-
NORTH MIDDLE TENNESSEE

CITY           SKY/WX    TMP DP  RH WIND       PRES   REMARKS
NASHVILLE      LGT RAIN  78  74  87 SE5       30.07S
PORTLAND       CLOUDY    81  75  83 S12       30.06R
CLARKSVILLE    SUNNY     82  74  76 S3        30.03S
SMYRNA         CLOUDY    77  74  90 S6        30.08S
COOKEVILLE     MOSUNNY   73  73 100 SE5       30.10S FOG
GALLATIN       PTSUNNY   77  75  94 CALM      30.09S
CROSSVILLE     RAIN      73  69  87 CALM      30.15F FOG
$$

TNZ061-075-076-078-094-096-097-161600-
SOUTH MIDDLE TENNESSEE

CITY           SKY/WX    TMP DP  RH WIND       PRES   REMARKS
FAYETTEVILLE   CLOUDY    77  73  88 SW7       30.10R
TULLAHOMA      CLOUDY    77  72  83 SW6       30.12R
WINCHESTER     CLOUDY    81  73  78 W6        30.10S
MCMINNVILLE    PTSUNNY   77  77 100 W3        30.12R
COLUMBIA       PTSUNNY   81  79  94 S8        30.06R
SHELBYVILLE    CLOUDY    79  73  83 SW5       30.09S
$$

TNZ017-018-042-046-047-161600-
NORTHEAST TENNESSEE

CITY           SKY/WX    TMP DP  RH WIND       PRES   REMARKS
TRI CITIES     CLOUDY    77  71  82 CALM      30.13R
ELIZABETHTON   CLOUDY    77  70  78 CALM      30.13S
$$

TNZ012-013-036-069-073-074-161600-
CENTRAL EAST TENNESSEE

CITY           SKY/WX    TMP DP  RH WIND       PRES   REMARKS
KNOXVILLE      MOSUNNY   80  72  76 SW6       30.09F
OAK RIDGE      MOSUNNY   80  70  71 VRB3      30.11F
DOWNTOWN KNOXV MOSUNNY   81  73  78 SW7       30.09S
GATLINBURG     SUNNY     82  72  69 NW5       30.09F
MORRISTOWN     PTSUNNY   81  73  78 W8        30.11S
JACKSBORO      PTSUNNY   79  73  83 VRB5      30.13F
$$

TNZ083-085-099-161600-
SOUTHEAST TENNESSEE

CITY           SKY/WX    TMP DP  RH WIND       PRES   REMARKS
CHATTANOOGA    MOSUNNY   83  73  72 CALM      30.09S
DAYTON         SUNNY     82  77  83 VRB5      30.08S HX  91
$$

SKY/WX REPORTED AS FAIR MEANS FEW OR NO CLOUDS BELOW
12 THOUSAND FEET.





USA.gov is the U.S. government's official web portal to all federal, state and local government web resources and services.